Meath Environmental Platform

Observations for Trim Market St

Time AQI Temp °C Hum % Pres Pa CO μg/m³ H₂S μg/m³ NO μg/m³ NO₂ μg/m³ O₃ μg/m³ SO₂ μg/m³ PM1 μg/m³ PM2.5 μg/m³ PM10 μg/m³
Tuesday 7 July 2026
21:45 1 24.2 60 57,729 0 3.8 0 11.78 17.52 0 0.71 3.51 4.79
21:44 1 24.2 60 57,739 0 3.67 0 10.9 14.89 0 2.14 4.52 6.16
21:43 1 24.2 60 57,746 0 4.55 0 12.12 16.62 0 3.56 5.03 6.84
21:42 1 24.3 60 57,754 0 2.79 0 12.9 17.63 0 2.14 4.03 5.47
21:41 1 24.3 60 57,761 0 3.19 0 14.02 14.05 0 2.14 5.04 7.53
21:40 1 24.3 60 57,769 0 1.2 0 12.12 9.52 0 2.14 4.04 5.46
21:39 1 24.4 60 57,774 0 1.59 0 14.01 10.02 0 2.14 5.55 7.53
21:38 1 24.4 60 57,778 0 1.25 0 9.12 17.1 0 2.85 4.55 6.15
21:37 1 24.4 59 57,783 0 1.81 0 8.13 12.35 0 2.14 5.06 7.53
21:36 1 24.5 59 57,789 0 4.59 0 12.53 25.17 0 2.14 3.56 5.46
21:35 1 24.5 59 57,797 0 0 0 9.44 17.53 0 2.85 5.57 7.53
21:32 1 24.6 59 57,806 0 3.84 0 13.26 20.37 0 2.85 4.59 6.14
21:31 1 24.7 59 57,811 0 3.12 0 11.14 11.32 0 0.71 4.6 6.14
21:29 1 24.7 58 57,819 0 2.22 0 11.65 14.42 0 4.28 6.11 8.22
21:20 1 25.1 58 57,838 0 0.03 0 9.62 14.51 0 3.56 5.64 8.23
21:18 1 25.1 58 57,841 0 2.05 0 12.65 10.21 0 2.85 5.15 7.53
21:17 1 25.2 58 57,845 0 3.35 0 12.93 12.21 0 2.14 4.65 6.13
21:16 1 25.2 57 57,847 0 3.61 0 14.25 19.61 0 2.14 5.16 7.53
21:15 1 25.3 57 57,848 0 0.74 0 9.33 14.82 0 2.14 4.16 5.42
21:14 1 25.3 57 57,849 0 0.44 0 8.84 15.28 0 1.43 3.66 5.42